KC7FQC Weather Reports


time (UTC)temp
F
wind
direction
speed
knots
gust
knots
rain 1hr
in
rain 24hr
in
rain mn
in
humidity
%
barometer
mb
20200808080948 90 259 0.9 1.7 0.00 0.00 0.00 28 1008.9
20200808080452 90 259 0.9 1.7 0.00 0.00 0.00 28 1008.9
20200808075950 90 259 0.0 3.5 0.00 0.00 0.00 28 1008.9
20200808075447 90 259 0.9 3.5 0.00 0.00 0.00 28 1008.7
20200808074947 90 259 0.0 1.7 0.00 0.00 0.00 29 1008.7
20200808074447 90 259 0.0 0.9 0.00 0.00 0.00 30 1008.8
20200808073947 90 259 0.0 0.9 0.00 0.00 0.00 30 1008.8
20200808073503 90 259 0.0 0.0 0.00 0.00 0.00 30 1008.7
20200808072947 90 259 0.0 0.0 0.00 0.00 0.00 30 1008.6
20200808072447 91 259 0.0 0.0 0.00 0.00 0.00 30 1008.7
20200808072007 91 259 0.0 0.0 0.00 0.00 0.00 29 1008.7
20200808071503 91 259 0.0 0.0 0.00 0.00 0.00 31 1008.5
20200808070949 91 259 0.0 0.0 0.00 0.00 0.00 31 1008.6
20200808070447 92 259 0.0 0.0 0.00 0.00 0.00 31 1008.6
20200808065947 92 259 0.0 0.0 0.00 0.00 0.00 30 1008.6
20200808065447 92 259 0.0 0.0 0.00 0.00 0.00 29 1008.5
20200808064947 92 259 0.0 0.0 0.00 0.00 0.00 29 1008.4
20200808064447 92 259 0.0 0.0 0.00 0.00 0.00 29 1008.5
20200808063947 92 259 0.0 1.7 0.00 0.00 0.00 27 1008.5
20200808063513 92 259 0.0 1.7 0.00 0.00 0.00 28 1008.5
20200808062947 92 259 1.7 1.7 0.00 0.00 0.00 28 1008.5
20200808062447 92 259 0.0 0.0 0.00 0.00 0.00 29 1008.4
20200808061947 92 259 0.0 0.0 0.00 0.00 0.00 29 1008.5
20200808061447 92 259 0.0 0.0 0.00 0.00 0.00 29 1008.5
20200808060951 92 259 0.0 0.0 0.00 0.00 0.00 29 1008.5
20200808060448 92 259 0.0 2.6 0.00 0.00 0.00 29 1008.4
20200808055947 92 259 0.0 2.6 0.00 0.00 0.00 29 1008.4
20200808055506 93 259 0.0 1.7 0.00 0.00 0.00 30 1008.3
20200808055000 93 259 0.0 1.7 0.00 0.00 0.00 29 1008.3
20200808054447 93 259 1.7 1.7 0.00 0.00 0.00 30 1008.3
20200808053947 94 259 0.0 0.0 0.00 0.00 0.00 30 1008.2
20200808053447 94 259 0.0 0.0 0.00 0.00 0.00 29 1008.1
20200808052947 94 259 0.0 0.0 0.00 0.00 0.00 28 1007.9
20200808052447 94 259 0.0 0.0 0.00 0.00 0.00 29 1008.2
20200808051947 95 259 0.0 0.0 0.00 0.00 0.00 28 1008.1
20200808051448 95 259 0.0 0.0 0.00 0.00 0.00 29 1008.1
20200808050947 95 259 0.0 0.0 0.00 0.00 0.00 28 1008.1
20200808050448 95 259 0.0 0.0 0.00 0.00 0.00 28 1008.0
20200808050003 95 259 0.0 0.0 0.00 0.00 0.00 27 1008.1
20200808045447 96 259 0.0 0.0 0.00 0.00 0.00 27 1008.1
20200808044947 96 259 0.0 0.0 0.00 0.00 0.00 27 1008.0
20200808044447 96 259 0.0 0.0 0.00 0.00 0.00 26 1008.0
20200808043947 96 259 0.0 0.0 0.00 0.00 0.00 27 1007.9
20200808043447 96 259 0.0 0.0 0.00 0.00 0.00 27 1007.9
20200808042947 97 259 0.0 0.0 0.00 0.00 0.00 26 1007.7
20200808042447 97 259 0.0 0.0 0.00 0.00 0.00 26 1007.7
20200808041947 97 259 0.0 0.0 0.00 0.00 0.00 27 1007.6
20200808041447 98 259 0.0 0.0 0.00 0.00 0.00 27 1007.7
20200808040947 98 259 0.0 0.9 0.00 0.00 0.00 28 1007.6
20200808040447 98 259 0.0 0.9 0.00 0.00 0.00 28 1007.8
20200808035947 99 259 0.0 0.0 0.00 0.00 0.00 27 1007.5
20200808035448 99 259 0.0 0.0 0.00 0.00 0.00 26 1007.3
20200808034947 99 259 0.0 0.0 0.00 0.00 0.00 26 1007.2
20200808034451 99 259 0.0 0.0 0.00 0.00 0.00 26 1007.1
20200808034003 100 259 0.0 0.0 0.00 0.00 0.00 26 1007.1
20200808033502 100 259 0.0 0.0 0.00 0.00 0.00 25 1007.1
20200808032947 100 259 0.0 0.0 0.00 0.00 0.00 25 1007.1
20200808032447 101 259 0.0 0.0 0.00 0.00 0.00 24 1007.1
20200808031947 101 259 0.0 0.0 0.00 0.00 0.00 24 1007.0
20200808031504 101 259 0.0 0.0 0.00 0.00 0.00 23 1007.0
20200808031003 102 259 0.0 0.0 0.00 0.00 0.00 23 1006.9
20200808030447 102 259 0.0 0.0 0.00 0.00 0.00 23 1006.8
20200808025947 102 259 0.0 0.0 0.00 0.00 0.00 22 1006.9
20200808025447 102 259 0.0 1.7 0.00 0.00 0.00 22 1006.8
20200808024947 103 259 0.0 2.6 0.00 0.00 0.00 22 1006.6
20200808024447 103 259 0.9 3.5 0.00 0.00 0.00 22 1006.6
20200808023947 103 259 0.0 4.3 0.00 0.00 0.00 22 1006.6
20200808023505 103 259 3.5 5.2 0.00 0.00 0.00 21 1006.5
20200808023006 104 259 3.5 5.2 0.00 0.00 0.00 21 1006.6
20200808022448 104 259 3.5 7.0 0.00 0.00 0.00 21 1006.6
20200808021947 104 259 3.5 7.0 0.00 0.00 0.00 21 1006.6
20200808021449 104 259 2.6 7.0 0.00 0.00 0.00 21 1006.7
20200808020947 105 259 0.9 7.0 0.00 0.00 0.00 20 1006.5
20200808020448 105 266 2.6 7.0 0.00 0.00 0.00 20 1006.3
20200808015947 105 271 2.6 7.8 0.00 0.00 0.00 20 1006.3
20200808015447 105 218 0.9 8.7 0.00 0.00 0.00 20 1006.2
20200808014947 105 265 3.5 8.7 0.00 0.00 0.00 19 1006.2
20200808014447 105 207 3.5 6.1 0.00 0.00 0.00 18 1006.0
20200808013947 106 207 6.1 7.8 0.00 0.00 0.00 18 1005.9
20200808013447 106 213 4.3 11.3 0.00 0.00 0.00 18 1005.9
20200808012947 106 200 3.5 11.3 0.00 0.00 0.00 17 1006.0
20200808012447 107 226 7.8 9.6 0.00 0.00 0.00 18 1006.1
20200808011948 107 275 5.2 7.0 0.00 0.00 0.00 18 1006.1
20200808011447 107 236 0.9 7.8 0.00 0.00 0.00 19 1006.0
20200808010948 107 236 2.6 9.6 0.00 0.00 0.00 19 1006.1
20200808010447 107 272 4.3 9.6 0.00 0.00 0.00 18 1006.1
20200808005947 108 229 7.0 8.7 0.00 0.00 0.00 17 1006.0
20200808005447 108 232 3.5 7.8 0.00 0.00 0.00 17 1006.0
20200808004946 108 222 3.5 7.8 0.00 0.00 0.00 18 1006.0
20200808004447 108 259 0.9 4.3 0.00 0.00 0.00 18 1006.0
20200808003947 108 259 1.7 7.8 0.00 0.00 0.00 18 1006.0
20200808003447 108 259 2.6 7.8 0.00 0.00 0.00 18 1006.0
20200808003006 108 239 1.7 9.6 0.00 0.00 0.00 17 1006.1
20200808002446 108 223 3.5 9.6 0.00 0.00 0.00 17 1006.0
20200808001947 108 142 1.7 6.1 0.00 0.00 0.00 17 1006.0
20200808001448 108 108 0.0 3.5 0.00 0.00 0.00 17 1006.1
20200808000949 107 103 0.0 7.8 0.00 0.00 0.00 17 1006.2
20200808000447 107 161 0.9 9.6 0.00 0.00 0.00 16 1006.2
20200807235947 108 179 5.2 9.6 0.00 0.00 0.00 16 1006.3
20200807235447 108 217 2.6 10.4 0.00 0.00 0.00 16 1006.3
20200807234946 108 222 5.2 13.0 0.00 0.00 0.00 16 1006.5
20200807234449 108 234 5.2 13.0 0.00 0.00 0.00 16 1006.6
20200807233948 109 277 6.1 10.4 0.00 0.00 0.00 16 1006.5
20200807233446 109 205 1.7 10.4 0.00 0.00 0.00 16 1006.6
20200807232946 109 251 7.8 13.0 0.00 0.00 0.00 16 1006.6
20200807232446 109 246 5.2 13.9 0.00 0.00 0.00 16 1006.6
20200807231947 109 254 10.4 13.9 0.00 0.00 0.00 16 1006.6
20200807231446 109 213 1.7 12.2 0.00 0.00 0.00 15 1006.6
20200807230947 109 205 6.1 12.2 0.00 0.00 0.00 15 1006.7
20200807230446 110 198 3.5 11.3 0.00 0.00 0.00 15 1006.9
20200807225946 110 179 1.7 6.1 0.00 0.00 0.00 16 1006.9
20200807225446 110 173 1.7 7.8 0.00 0.00 0.00 16 1007.0
20200807224948 111 203 2.6 7.8 0.00 0.00 0.00 16 1007.1
20200807224446 111 252 7.0 7.0 0.00 0.00 0.00 15 1007.2
20200807223949 111 257 5.2 7.0 0.00 0.00 0.00 15 1007.2
20200807223446 112 261 2.6 7.0 0.00 0.00 0.00 16 1007.4
20200807222946 111 264 3.5 7.0 0.00 0.00 0.00 16 1007.4
20200807222446 111 259 1.7 8.7 0.00 0.00 0.00 16 1007.4
20200807222005 111 273 3.5 8.7 0.00 0.00 0.00 16 1007.4
20200807221446 110 273 0.9 7.8 0.00 0.00 0.00 16 1007.3
20200807220946 110 265 0.0 7.8 0.00 0.00 0.00 16 1007.3
20200807220503 109 216 3.5 7.8 0.00 0.00 0.00 17 1007.4
20200807215946 109 215 0.9 9.6 0.00 0.00 0.00 17 1007.5
20200807215446 109 209 4.3 12.2 0.00 0.00 0.00 16 1007.8
20200807214946 109 223 3.5 12.2 0.00 0.00 0.00 16 1007.9
20200807214505 109 189 4.3 11.3 0.00 0.00 0.00 16 1008.0
20200807213946 109 140 5.2 8.7 0.00 0.00 0.00 16 1007.9
20200807213447 109 206 5.2 7.8 0.00 0.00 0.00 16 1007.9
20200807212946 108 185 2.6 6.1 0.00 0.00 0.00 17 1007.9
20200807212503 108 103 0.9 9.6 0.00 0.00 0.00 17 1007.9
20200807211946 109 130 2.6 9.6 0.00 0.00 0.00 17 1008.2
20200807211446 110 183 0.9 6.1 0.00 0.00 0.00 16 1008.2
20200807210950 109 180 1.7 7.0 0.00 0.00 0.00 16 1008.4
20200807210447 110 184 4.3 7.0 0.00 0.00 0.00 16 1008.4
20200807205947 110 220 1.7 4.3 0.00 0.00 0.00 17 1008.3
20200807205448 109 219 1.7 7.8 0.00 0.00 0.00 17 1008.4
20200807205004 110 248 0.0 7.8 0.00 0.00 0.00 16 1008.5
20200807204449 110 183 3.5 6.1 0.00 0.00 0.00 17 1008.6
20200807203946 110 171 0.9 7.0 0.00 0.00 0.00 17 1008.6
20200807203448 109 161 4.3 7.0 0.00 0.00 0.00 17 1008.7
20200807203001 109 239 5.2 7.0 0.00 0.00 0.00 18 1008.8
20200807202504 108 231 5.2 7.0 0.00 0.00 0.00 18 1008.8
20200807201946 108 186 0.9 6.1 0.00 0.00 0.00 18 1008.7
20200807201448 108 174 6.1 7.0 0.00 0.00 0.00 18 1008.7
20200807200946 107 225 1.7 7.0 0.00 0.00 0.00 19 1008.8
20200807200447 106 239 0.0 7.0 0.00 0.00 0.00 19 1008.8
20200807195949 107 236 3.5 7.0 0.00 0.00 0.00 20 1008.9
20200807195447 106 201 6.1 6.1 0.00 0.00 0.00 20 1009.0
20200807194946 106 186 1.7 10.4 0.00 0.00 0.00 20 1009.2
20200807194447 106 185 2.6 10.4 0.00 0.00 0.00 20 1009.0
20200807193946 106 193 0.9 4.3 0.00 0.00 0.00 20 1009.0
20200807193501 107 202 1.7 6.1 0.00 0.00 0.00 19 1009.3
20200807192948 107 210 3.5 6.1 0.00 0.00 0.00 19 1009.4
20200807192501 106 225 1.7 2.6 0.00 0.00 0.00 20 1009.3
20200807192002 106 226 1.7 4.3 0.00 0.00 0.00 21 1009.4
20200807191446 105 226 1.7 4.3 0.00 0.00 0.00 21 1009.5
20200807190946 106 220 1.7 3.5 0.00 0.00 0.00 21 1009.4
20200807190446 106 219 0.0 7.8 0.00 0.00 0.00 21 1009.5
20200807185946 106 219 2.6 7.8 0.00 0.00 0.00 21 1009.6
20200807185446 106 219 7.0 7.8 0.00 0.00 0.00 21 1009.6
20200807184946 106 217 1.7 8.7 0.00 0.00 0.00 21 1009.7
20200807184502 105 218 6.1 8.7 0.00 0.00 0.00 22 1009.7
20200807184005 104 219 0.9 6.1 0.00 0.00 0.00 22 1009.6
20200807183446 104 218 3.5 7.0 0.00 0.00 0.00 22 1009.7
20200807183004 104 205 5.2 8.7 0.00 0.00 0.00 23 1009.8
20200807182446 103 225 3.5 8.7 0.00 0.00 0.00 23 1009.9
20200807181946 103 194 4.3 7.0 0.00 0.00 0.00 23 1010.0
20200807181505 103 171 3.5 7.0 0.00 0.00 0.00 23 1009.9
20200807180946 104 193 2.6 7.0 0.00 0.00 0.00 23 1009.8
20200807180446 103 194 0.0 7.0 0.00 0.00 0.00 23 1010.1
20200807175946 104 209 1.7 8.7 0.00 0.00 0.00 23 1010.1
20200807175447 104 209 0.0 8.7 0.00 0.00 0.00 23 1010.2
20200807174946 104 224 4.3 8.7 0.00 0.00 0.00 23 1010.0
20200807174500 104 244 0.9 7.8 0.00 0.00 0.00 24 1010.0
20200807173946 103 248 0.0 5.2 0.00 0.00 0.00 24 1010.2
20200807173448 104 248 0.9 5.2 0.00 0.00 0.00 24 1010.3
20200807172948 103 256 2.6 4.3 0.00 0.00 0.00 24 1010.3
20200807172446 102 256 2.6 6.1 0.00 0.00 0.00 25 1010.3
20200807172003 103 256 1.7 6.1 0.00 0.00 0.00 25 1010.4
20200807171447 102 257 1.7 4.3 0.00 0.00 0.00 25 1010.5
20200807171003 102 257 0.9 4.3 0.00 0.00 0.00 25 1010.6
20200807170446 102 256 0.9 4.3 0.00 0.00 0.00 25 1010.4
20200807165947 102 254 0.9 3.5 0.00 0.00 0.00 24 1010.6
20200807165447 101 254 0.0 4.3 0.00 0.00 0.00 25 1010.9
20200807164946 101 254 1.7 6.1 0.00 0.00 0.00 25 1010.8
20200807164504 101 261 1.7 6.1 0.00 0.00 0.00 25 1010.7
20200807164001 101 261 0.0 3.5 0.00 0.00 0.00 25 1010.7
20200807163446 101 261 1.7 5.2 0.00 0.00 0.00 25 1010.6
20200807162946 101 261 0.9 5.2 0.00 0.00 0.00 25 1010.5
20200807162448 100 261 0.0 5.2 0.00 0.00 0.00 26 1010.4
20200807161946 100 261 0.9 5.2 0.00 0.00 0.00 27 1010.3
20200807161447 100 261 2.6 6.1 0.00 0.00 0.00 26 1010.3
20200807160946 99 261 1.7 6.1 0.00 0.00 0.00 27 1010.3
20200807160445 98 261 0.9 5.2 0.00 0.00 0.00 26 1010.3
20200807160001 98 261 3.5 5.2 0.00 0.00 0.00 26 1010.3
20200807155448 97 261 2.6 2.6 0.00 0.00 0.00 25 1010.4
20200807154946 97 261 1.7 3.5 0.00 0.00 0.00 25 1010.4
20200807154454 97 261 2.6 3.5 0.00 0.00 0.00 24 1010.4
20200807153946 96 261 2.6 3.5 0.00 0.00 0.00 24 1010.3
20200807153446 96 261 0.0 2.6 0.00 0.00 0.00 24 1010.4
20200807152946 96 261 0.0 2.6 0.00 0.00 0.00 23 1010.4
20200807152447 95 261 0.0 2.6 0.00 0.00 0.00 24 1010.1
20200807151945 95 261 0.0 2.6 0.00 0.00 0.00 24 1010.1
20200807151446 94 261 0.9 1.7 0.00 0.00 0.00 24 1010.1
20200807150947 93 261 0.0 2.6 0.00 0.00 0.00 24 1009.9
20200807150500 93 261 0.9 2.6 0.00 0.00 0.00 24 1009.9
20200807145946 92 261 0.0 3.5 0.00 0.00 0.00 25 1009.9
20200807145446 91 261 1.7 3.5 0.00 0.00 0.00 25 1009.8
20200807144947 91 261 0.9 2.6 0.00 0.00 0.00 25 1009.8
20200807144445 91 261 1.7 2.6 0.00 0.00 0.00 25 1009.8
20200807143945 90 261 0.9 1.7 0.00 0.00 0.00 26 1009.7
20200807143445 89 261 0.0 1.7 0.00 0.00 0.00 26 1009.7
20200807142948 88 261 1.7 1.7 0.00 0.00 0.00 24 1009.5
20200807142446 88 261 0.9 0.9 0.00 0.00 0.00 27 1009.4
20200807141945 87 261 0.0 0.9 0.00 0.00 0.00 29 1009.4
20200807141445 86 261 0.0 0.9 0.00 0.00 0.00 30 1009.2
20200807140945 85 261 0.0 0.9 0.00 0.00 0.00 33 1009.3
20200807140501 83 261 0.0 1.7 0.00 0.00 0.00 34 1009.1
20200807140001 83 261 0.0 1.7 0.00 0.00 0.00 35 1009.1
20200807135445 82 261 0.0 0.0 0.00 0.00 0.00 34 1009.0
20200807135004 82 261 0.0 0.9 0.00 0.00 0.00 32 1009.0
20200807134445 82 261 0.0 1.7 0.00 0.00 0.00 34 1009.0
20200807133945 81 261 0.0 1.7 0.00 0.00 0.00 34 1008.7
20200807133445 81 261 0.0 1.7 0.00 0.00 0.00 35 1008.8
20200807132945 81 261 0.0 0.0 0.00 0.00 0.00 35 1008.8
20200807132445 80 261 0.0 0.0 0.00 0.00 0.00 35 1008.7
20200807131946 80 261 0.0 0.0 0.00 0.00 0.00 33 1008.6
20200807131446 80 261 0.0 0.0 0.00 0.00 0.00 33 1008.6
20200807130945 79 261 0.0 0.9 0.00 0.00 0.00 34 1008.4
20200807130447 79 261 0.0 0.9 0.00 0.00 0.00 33 1008.4
20200807125947 79 261 0.9 0.9 0.00 0.00 0.00 32 1008.2
20200807125501 79 261 0.0 0.0 0.00 0.00 0.00 33 1008.3
20200807124945 79 261 0.0 0.9 0.00 0.00 0.00 32 1008.1
20200807124447 79 261 0.0 0.9 0.00 0.00 0.00 32 1007.9
20200807124001 79 261 0.0 0.9 0.00 0.00 0.00 33 1007.9
20200807123445 79 261 0.0 1.7 0.00 0.00 0.00 33 1007.7
20200807122945 79 261 0.9 2.6 0.00 0.00 0.00 33 1007.5
20200807122450 79 261 0.9 2.6 0.00 0.00 0.00 33 1007.4
20200807122004 79 261 0.0 0.9 0.00 0.00 0.00 33 1007.2
20200807121445 79 261 0.0 0.0 0.00 0.00 0.00 32 1007.3
20200807120946 79 261 0.0 0.0 0.00 0.00 0.00 31 1007.2
20200807120446 79 261 0.0 0.0 0.00 0.00 0.00 33 1007.2
20200807115946 79 261 0.0 0.0 0.00 0.00 0.00 33 1007.1
20200807115445 79 261 0.0 0.0 0.00 0.00 0.00 33 1007.0
20200807114946 79 261 0.0 0.0 0.00 0.00 0.00 31 1006.7
20200807114445 79 261 0.0 1.7 0.00 0.00 0.00 32 1006.7
20200807113945 79 261 0.0 1.7 0.00 0.00 0.00 32 1006.8
20200807113445 79 261 0.0 0.9 0.00 0.00 0.00 32 1006.8
20200807112948 79 261 0.0 0.0 0.00 0.00 0.00 33 1006.8
20200807112445 79 261 0.0 0.9 0.00 0.00 0.00 33 1006.8
20200807111946 79 261 0.0 0.9 0.00 0.00 0.00 34 1006.7
20200807111500 79 261 0.0 0.0 0.00 0.00 0.00 37 1006.7
20200807110946 79 261 0.0 0.0 0.00 0.00 0.00 37 1006.6
20200807110445 79 261 0.0 0.0 0.00 0.00 0.00 38 1006.6
20200807105945 79 261 0.0 0.0 0.00 0.00 0.00 38 1006.7
20200807105445 79 261 0.0 0.0 0.00 0.00 0.00 38 1006.7
20200807104956 79 261 0.0 0.9 0.00 0.00 0.00 38 1006.6
20200807104445 79 261 0.0 0.9 0.00 0.00 0.00 38 1006.5
20200807103945 80 261 0.0 0.0 0.00 0.00 0.00 36 1006.5
20200807103516 80 261 0.0 0.0 0.00 0.00 0.00 37 1006.5
20200807102945 80 261 0.0 0.0 0.00 0.00 0.00 37 1006.5
20200807102447 80 261 0.0 0.9 0.00 0.00 0.00 37 1006.4
20200807102000 80 261 0.0 0.9 0.00 0.00 0.00 36 1006.4
20200807101445 80 261 0.0 0.0 0.00 0.00 0.00 36 1006.3
20200807101001 80 261 0.0 1.7 0.00 0.00 0.00 36 1006.4
20200807100445 81 261 0.0 1.7 0.00 0.00 0.00 37 1006.5
20200807100006 81 261 0.0 0.0 0.00 0.00 0.00 36 1006.4
20200807095445 81 261 0.0 0.0 0.00 0.00 0.00 35 1006.4
20200807094945 81 261 0.0 0.0 0.00 0.00 0.00 34 1006.4
20200807094446 82 261 0.0 0.0 0.00 0.00 0.00 34 1006.6
20200807093945 82 261 0.0 0.0 0.00 0.00 0.00 35 1006.6
20200807093445 82 261 0.0 0.0 0.00 0.00 0.00 34 1006.6
20200807092945 82 261 0.0 0.0 0.00 0.00 0.00 32 1006.6
20200807092445 82 261 0.0 0.0 0.00 0.00 0.00 31 1006.6
20200807091945 83 261 0.0 0.0 0.00 0.00 0.00 31 1006.5
20200807091445 83 261 0.0 0.0 0.00 0.00 0.00 32 1006.6
20200807090945 83 261 0.0 0.0 0.00 0.00 0.00 31 1006.6
20200807090445 83 261 0.0 1.7 0.00 0.00 0.00 30 1006.5
20200807085945 83 261 0.0 1.7 0.00 0.00 0.00 30 1006.6
20200807085445 83 261 0.9 0.9 0.00 0.00 0.00 31 1006.3
20200807084946 83 261 0.0 0.0 0.00 0.00 0.00 31 1006.2
20200807084445 83 261 0.0 1.7 0.00 0.00 0.00 31 1006.0
20200807083945 83 261 0.0 1.7 0.00 0.00 0.00 30 1006.1
20200807083445 83 261 1.7 1.7 0.00 0.00 0.00 31 1006.1
20200807082945 83 261 0.0 0.0 0.00 0.00 0.00 31 1006.0
20200807082500 84 261 0.0 0.0 0.00 0.00 0.00 30 1006.1
20200807081945 84 261 0.0 0.0 0.00 0.00 0.00 30 1006.1
20200807081501 84 261 0.0 0.0 0.00 0.00 0.00 30 1006.1
20200807081000 84 261 0.0 0.0 0.00 0.00 0.00 29 1006.1